Weather History for Palm Springs, CA

Change the Weather History Date:

Saturday, July 8, 2006

  Actual Average Record
Temperature  
Mean Temperature 96 °F 92 °F  
Max Temperature 111 °F 107 °F 119 °F (1958)
Min Temperature 84 °F 77 °F 61 °F (1935)
Degree Days  
Heating Degree Days 0 0  
Month to date heating degree days 0  
Since 1 June heating degree days 0  
Since 1 July heating degree days 0  
Cooling Degree Days 32 27  
Month to date cooling degree days 209  
Year to date cooling degree days 1615  
Since 1 June cooling degree days 856  
Growing Degree Days 46 (Base 50)    
Moisture  
Dew Point 50 °F    
Average Humidity 20    
Maximum Humidity 40    
Minimum Humidity 13    
Precipitation  
Precipitation 0.00 in 0.00 in 0.33 in (1999)
Month to date precipitation 0.00  
Year to date precipitation 2.94  
Since 1 July precipitation 0.00  
Snow  
Snow 0.00 in - - ()
Month to date snowfall  
Year to date snowfall  
Since 1 July snowfall  
Snow Depth -    
Sea Level Pressure  
Sea Level Pressure 29.82 in    
Wind  
Wind Speed 7 mph (WNW)    
Max Wind Speed 14 mph    
Max Gust Speed 18 mph    
Visibility 10 miles    
Events      
T = Trace of Precipitation, MM = Missing Value Source: NWS Daily Summary

Daily Weather History Graph

Daily Weather History Graph

Search for Another Location

Airport:

Trip Planner

Search our weather history database for the weather conditions in past years. The results will help you decide how hot, cold, wet, or windy it might be!

Date:

Astronomy

Jul. 08, 2006 Rise Set
Actual Time 5:42 AM PDT 7:59 PM PDT
Civil Twilight 5:13 AM PDT 8:28 PM PDT
Nautical Twilight 4:38 AM PDT 9:03 PM PDT
Astronomical Twilight 3:59 AM PDT 9:41 PM PDT
Moon 6:15 PM PDT (7/8) 2:54 AM PDT (7/8)
Length of Visible Light 15h 15m
Length of Day
14h 17m
Waxing Gibbous, 93% of the Moon is Illuminated
Jul 8
Waxing Gibbous
Jul 10
Full
Jul 17
Last Quarter
Jul 24
New
Aug 2
First Quarter

Hourly Weather History & Observations

Time (PDT) Temp. Heat Index Dew Point Humidity Pressure Visibility Wind Dir Wind Speed Gust Speed Precip Events Conditions
12:53 AM 91.9 °F - 48.0 °F 22% 29.88 in 10.0 mi NW 6.9 mph - N/A   Clear
1:53 AM 91.9 °F - 48.0 °F 22% 29.88 in 10.0 mi NW 6.9 mph - N/A   Clear
2:53 AM 89.1 °F - 51.1 °F 27% 29.87 in 10.0 mi NNW 9.2 mph - N/A   Clear
3:53 AM 84.0 °F 83.3 °F 57.0 °F 40% 29.87 in 10.0 mi West 3.5 mph - N/A   Clear
4:53 AM 87.1 °F - 48.9 °F 27% 29.87 in 10.0 mi NNW 10.4 mph - N/A   Clear
5:53 AM 87.1 °F - 50.0 °F 28% 29.88 in 10.0 mi NW 5.8 mph - N/A   Clear
6:53 AM 88.0 °F - 51.1 °F 28% 29.89 in 10.0 mi NNW 6.9 mph - N/A   Clear
7:53 AM 93.0 °F - 50.0 °F 23% 29.89 in 10.0 mi NNW 10.4 mph - N/A   Clear
8:53 AM 96.1 °F 94.1 °F 55.0 °F 25% 29.89 in 10.0 mi SW 3.5 mph - N/A   Clear
9:53 AM 102.0 °F - 51.1 °F 18% 29.88 in 10.0 mi Calm Calm - N/A   Clear
10:53 AM 102.9 °F - 52.0 °F 18% 29.86 in 10.0 mi Calm Calm - N/A   Scattered Clouds
11:53 AM 107.1 °F - 51.1 °F 16% 29.85 in 10.0 mi Variable 3.5 mph - N/A   Clear
12:53 PM 109.0 °F - 50.0 °F 14% 29.82 in 10.0 mi SE 10.4 mph - N/A   Clear
1:53 PM 109.9 °F - 48.9 °F 13% 29.80 in 10.0 mi East 10.4 mph - N/A   Clear
2:53 PM 109.0 °F - 48.9 °F 14% 29.78 in 10.0 mi ESE 10.4 mph - N/A   Clear
3:53 PM 109.9 °F - 50.0 °F 14% 29.76 in 10.0 mi SW 8.1 mph - N/A   Scattered Clouds
4:53 PM 109.0 °F - 50.0 °F 14% 29.74 in 10.0 mi South 6.9 mph - N/A   Scattered Clouds
5:53 PM 109.0 °F - 48.0 °F 13% 29.72 in 10.0 mi SE 3.5 mph - N/A   Scattered Clouds
6:53 PM 107.1 °F - 50.0 °F 15% 29.72 in 10.0 mi NW 10.4 mph 18.4 mph N/A   Clear
7:53 PM 102.9 °F - 46.9 °F 15% 29.73 in 10.0 mi NW 13.8 mph - N/A   Clear
8:53 PM 102.0 °F - 46.0 °F 15% 29.74 in 10.0 mi WNW 8.1 mph - N/A   Clear
9:53 PM 100.9 °F - 46.0 °F 15% 29.76 in 10.0 mi WNW 5.8 mph - N/A   Clear
10:53 PM 96.1 °F - 51.1 °F 22% 29.76 in 10.0 mi Calm Calm - N/A   Clear
11:53 PM 98.1 °F - 46.9 °F 18% 29.76 in 10.0 mi NW 6.9 mph - N/A   Clear